Change the Weather History Date:

Friday, October 25, 2013

  Actual Average Record
Temperature  
Mean Temperature 46 °F -  
Max Temperature 60 °F 47 °F 73 °F (2007)
Min Temperature 31 °F 28 °F 15 °F (2001)
Degree Days  
Heating Degree Days 19    
Month to date heating degree days 428  
Moisture  
Dew Point 33 °F    
Average Humidity 64    
Maximum Humidity 92    
Minimum Humidity 36    
Precipitation  
Precipitation 0.00 in - - ()
Month to date precipitation 3.31  
Year to date precipitation 28.87  
Sea Level Pressure  
Sea Level Pressure 30.04 in    
Wind  
Wind Speed 17 mph (West)    
Max Wind Speed 33 mph    
Max Gust Speed 44 mph    
Averages and records for this station are not official NWS values.
T = Trace of Precipitation, MM = Missing Value Source: NWS Daily Summary

Daily Weather History Graph

Daily Weather History Graph

Search for Another Location

Airport or City:

Trip Planner

Search our weather history database for the weather conditions in past years. The results will help you decide how hot, cold, wet, or windy it might be!

Date:

Astronomy

Oct. 25, 2013 Rise Set
Actual Time 8:19 AM CDT 6:39 PM CDT
Civil Twilight 7:48 AM CDT 7:10 PM CDT
Nautical Twilight 7:11 AM CDT 7:46 PM CDT
Astronomical Twilight 6:36 AM CDT 8:22 PM CDT
Moon 11:54 PM CDT (10/25) 2:08 PM CDT (10/25)
Length of Visible Light 11h 22m
Length of Day
10h 19m
Waning Gibbous, 62% of the Moon is Illuminated
Oct 25
Waning Gibbous
Oct 26
Last Quarter
Nov 3
New
Nov 9
First Quarter
Nov 17
Full

Hourly Weather History & Observations

Time (CDT) Temp. Windchill Dew Point Humidity Pressure Visibility Wind Dir Wind Speed Gust Speed Precip Events Conditions
12:52 AM 32.0 °F 23.6 °F 28.9 °F 88% 30.22 in - SSW 10.4 mph - N/A   Unknown
1:52 AM 32.0 °F 24.2 °F 28.0 °F 85% 30.19 in - SSW 9.2 mph - N/A   Unknown
2:52 AM 33.1 °F 24.4 °F 28.9 °F 85% 30.16 in - SSW 11.5 mph - N/A   Unknown
3:52 AM 34.0 °F 24.2 °F 28.9 °F 82% 30.11 in - SSW 15.0 mph 19.6 mph N/A   Unknown
4:52 AM 35.1 °F 25.5 °F 30.0 °F 82% 30.06 in - SSW 15.0 mph 21.9 mph N/A   Unknown
5:52 AM 35.1 °F 26.9 °F 30.9 °F 85% 30.03 in - WSW 11.5 mph - N/A   Unknown
6:52 AM 36.0 °F 27.5 °F 32.0 °F 86% 30.02 in - SW 12.7 mph - N/A   Unknown
7:52 AM 37.0 °F 28.9 °F 34.0 °F 89% 29.99 in - SW 12.7 mph - N/A   Unknown
8:52 AM 37.9 °F 34.4 °F 35.1 °F 89% 29.98 in - WSW 4.6 mph - N/A   Unknown
9:52 AM 43.0 °F 36.4 °F 37.9 °F 82% 29.94 in - West 12.7 mph - N/A   Unknown
10:52 AM 46.9 °F - 39.0 °F 74% 29.96 in - WNW 11.5 mph - N/A   Unknown
11:52 AM 50.0 °F - 41.0 °F 71% 29.95 in - NW 21.9 mph 34.5 mph N/A   Unknown
12:52 PM 55.0 °F - 42.1 °F 62% 29.95 in - NW 24.2 mph 31.1 mph N/A   Unknown
1:52 PM 57.0 °F - 39.0 °F 51% 29.95 in - NW 19.6 mph - N/A   Unknown
2:52 PM 59.0 °F - 36.0 °F 42% 29.94 in - WNW 19.6 mph 33.4 mph N/A   Unknown
3:52 PM 60.1 °F - 37.0 °F 42% 29.94 in - NW 26.5 mph 33.4 mph N/A   Unknown
4:52 PM 60.1 °F - 33.1 °F 36% 29.94 in - NW 27.6 mph 35.7 mph N/A   Unknown
5:52 PM 55.0 °F - 32.0 °F 42% 29.97 in - NW 27.6 mph 38.0 mph N/A   Unknown
6:52 PM 48.0 °F - 27.0 °F 44% 30.01 in - NNW 20.7 mph 28.8 mph N/A   Unknown
7:52 PM 45.0 °F 37.4 °F 27.0 °F 49% 30.06 in - NW 18.4 mph 26.5 mph N/A   Unknown
8:52 PM 44.1 °F 35.7 °F 28.0 °F 53% 30.09 in - NW 20.7 mph - N/A   Unknown
9:52 PM 39.9 °F 32.5 °F 28.9 °F 65% 30.12 in - NW 12.7 mph - N/A   Unknown
10:52 PM 37.9 °F 29.6 °F 28.9 °F 70% 30.14 in - NNW 13.8 mph - N/A   Unknown
11:52 PM 34.0 °F 26.6 °F 28.0 °F 79% 30.16 in - NNW 9.2 mph - N/A   Unknown